COSMOS 2251 DEB, 35476

Orbit data source: Space-Track

COSMOS 2251 DEB, 35476 is space debris in LEO originally from a launch on Wed, 16 Jun 1993 UTC launched from the Plesetsk Missile And Space Complex (PKMTR). The debris from Iridium 33, an American commercial communications satellite, has been tracked extensively since its accidental collision with the defunct Russian satellite Cosmos 2251 in 2009. This event, occurring at high speed in low Earth orbit (LEO), generated thousands of pieces of space debris, significantly increasing the risk of further collisions. The Iridium 33 debris cloud has impacted space traffic management and orbital debris mitigation strategies, making it a subject of ongoing study in space situational awareness.

Loading next visibility...
Identifier
35476, 1993-036ALW
Orbit
LEO
Country
Flag of CISCIS
Related business
Manufacturer
Unknown
Mission
Spacecraft
Bus & Motor
Unknown
Mass
Unknown
Launch date (UTC)
1993-06-16 (33 years ago)
Launch vehicle
Unknown
Launch site
Plesetsk Missile And Space Complex (PKMTR)
Object type
Payload
Rocket body
Debris
Shape & HBR
Unknown shape, 0.1 m
Radar Cross Section
Small (<0.1 m²)

Expand to show TLE details & history
Last TLE update: 14 hours ago

TLE from 14 hours ago
0 COSMOS 2251 DEB
1 35476U 93036ALW 26122.05664027  .00010837  00000-0  14459-2 0  9993
2 35476  73.9742 144.4886 0012006 106.5770 284.7194 14.79617374899605
Epoch: 2026-05-02T01:21Z
TLE epoch observation values (Epoch: 2026-05-02T01:21:33.719Z)
Latitude
29.88486°
Longitude
-86.43289°
Altitude
631.86 km
Speed
7.547 km/s
True Right ascension
10h 15m 45s
True Declination
29° 44' 02"
Sunlit
Object was in daylight at epoch
Visualization orbit readout
Latitude
Unknown
Longitude
Unknown
Altitude
Unknown
Speed
Unknown
Apparent Right ascension
Unknown
Apparent Declination
Unknown
Sunlit
N/A
Visualization observer readout
Local Sidereal Time
22:55:23
Azimuth
Unknown
Elevation
Unknown
Doppler factor
Unknown
Orbital elements
Apogee altitude
636.525 km
Perigee altitude
619.702 km
Semi-major axis
7,006.251 km
Eccentricity
0.0012
Inclination
73.9742°
RAAN
144.4886°
Arg. of periapsis
106.577°
True anomaly
284.58629°
Mean anomaly
284.7194°
Eccentric anomaly
284.65285°
Mean motion
3.70096 °/min
Orbital period
97.27 mins
BSTAR
0.0014459
Loading maneuver chart data...
Computing Atmospheric mass density...

Documentation

Showing up to 5 results
|